Orbital Elements at Epoch 2459200.5 (2020-Dec-17.0) TDB
Reference: JPL 29 (heliocentric ecliptic J2000)
Element | Value | Uncertainty (1-sigma) | Units |
e | .1031809065148831 | 3.7207e-08 | |
a | 3.153989495968776 | 1.7337e-08 | au |
q | 2.828558000636298 | 1.2169e-07 | au |
i | 6.717146671660291 | 3.7579e-06 | deg |
node | 125.6149100474863 | 3.3331e-05 | deg |
peri | 12.28826086723892 | 3.8105e-05 | deg |
M | 243.7039037917221 | 1.9707e-05 | deg |
tp | 2459861.423854119300 (2022-Oct-08.92385412) | 0.00011468 | TDB |
period | 2045.920673526546 5.60 | 1.687e-05 4.619e-08 | d yr |
n | .175959901406866 | 1.4509e-09 | deg/d |
Q | 3.479420991301253 | 1.9126e-08 | au |
|
| | Orbit Determination Parameters
Additional Information
|